Regional Weather Roundup
Issued by NWS Northern Indiana

Home | Current Version | Previous Version | Text Only | Print | Product List | Glossary Off
Versions: 1 2 3 4 5 6 7 8 9 10 11 12 13 14 15 16 17 18 19 20 21 22 23 24 25 26 27 28 29 30 31 32 33 34 35 36 37 38 39 40 41 42 43 44 45 46 47 48 49 50

000
ASUS43 KIWX 202000
RWRIWX

KIWX WEATHER ROUNDUP
NATIONAL WEATHER SERVICE NORTHERN INDIANA
400 PM EDT SAT SEP 20 2014

NOTE: "FAIR" INDICATES FEW OR NO CLOUDS BELOW 12,000 FEET WITH NO
SIGNIFICANT WEATHER AND/OR OBSTRUCTIONS TO VISIBILITY.

* THESE STATIONS ARE NOT UNDER NWS QUALITY CONTROL. THEY ALSO MAY NOT
  REPORT WEATHER SUCH AS PRECIPITATION OR FOG.

INZ001>027-202100-
NORTHERN INDIANA

CITY           SKY/WX    TMP DP  RH WIND       PRES   REMARKS
GARY*          PTSUNNY   77  68  73 W12       29.85S
VALPARAISO     PTSUNNY   79  64  60 SW15      29.84F
SOUTH BEND     PTSUNNY   79  64  60 SW14      29.84F
GOSHEN         MOSUNNY   81  64  56 SW20G30   29.85F
ANGOLA*        PTSUNNY   81  75  83 S16       29.86F
FORT WAYNE     PTSUNNY   79  62  56 SW22G29   29.90F
PERU/GRISSOM   MOSUNNY   80  68  66 SW22      29.88F

$$
INZ028>050-202100-
CENTRAL INDIANA

CITY           SKY/WX    TMP DP  RH WIND       PRES   REMARKS
LAFAYETTE      MOSUNNY   80  65  59 SW14G24   29.87F
KOKOMO*        MOSUNNY   81  63  54 SW22      29.90F
MUNCIE*        SUNNY     80  59  48 SW15G26   29.93F
INDIANAPOLIS   CLOUDY    80  65  59 SW17G26   29.94F

$$
MIZ043>046-050>051-056>058-064>065-071>073-077>080-202100-
SOUTHWEST LOWER MICHIGAN

CITY           SKY/WX    TMP DP  RH WIND       PRES   REMARKS
BATTLE CREEK   CLOUDY    77  63  61 SW17      29.85S
BENTON HARBOR  LGT RAIN  72  67  84 SW10      29.84F
COLDWATER*     RAIN      74  67  78 SW5       29.86F
HILLSDALE*     LGT RAIN  71  67  88 S5        29.86F
HOLLAND        CLOUDY    74  66  76 SW21G30   29.80F
GRAND RAPIDS   PTSUNNY   76  69  79 SW14G24   29.79F
KALAMAZOO      LGT RAIN  78  64  61 SW12G22   29.83F
STURGIS*         N/A     77  66  69 SW16      29.84F
THREE RIVERS*  CLOUDY    75  65  71 SW3       29.85S

$$
OHZ001>008-015>018-024>025-202100-
NORTHWEST OHIO

CITY           SKY/WX    TMP DP  RH WIND       PRES   REMARKS
DEFIANCE       SUNNY     81  61  50 SW18G26   29.88F
FINDLAY        SUNNY     82  57  42 SW22G30   29.90F
TOLEDO EXPRESS SUNNY     81  58  45 SW16G25   29.86F
TOLEDO METCALF SUNNY     82  56  40 SW21G30   29.87F
LIMA           SUNNY     80  59  48 S18G28    29.92F

$$
AND FOR LAKE MICHIGAN COASTAL AND OPEN LAKE BUOY OBSERVATIONS

STATION/POSITION TEMP    WIND        PRES    VSBY  WAVE
                 AIR SEA DIR/SP/G                  HT/PER
                 (F)     (DEG/KT/KT) (MB)    (MI)  (FT/S)
CALUMET HARBOR    75     240/  5/ 10 1009.7R
MICHIGAN CITY     76     200/ 18/ 24   N/A
SAINT JOSEPH      72     180/ 12/ 15 1010.5F
SOUTH LAKE BUOY   66 63  210/ 14/ 17 1008.9F         4/ 6
4 MI NW BRIDGMAN  69 65  230/ 10/ 14   N/A           3/ 4
MICHIGAN CITY     70 65  240/ 10/ 14   N/A           3/ 4

$$
&&


USA.gov is the U.S. government's official web portal to all federal, state and local government web resources and services.